Location: Sabalos
(43.2860°N, 0.1414°E)
Time: 03:55:49
(UTC+00:00)

BREEZE-M DEB (TANK) - Pass Details

Date: 05 July 2020
Orbit: 308 x 15751 km, 49.4° (Epoch: 06 August)

Event Time Altitude Azimuth Distance (km) Brightness Sun altitude
Rises 23:23:52 0° 298° (WNW) 4,051 7.3 -23.4°
Reaches altitude 10° 23:27:57 10° 286° (WNW) 2,059 5.5 -23.5°
Enters shadow 23:29:38 18° 270° (W) 1,300 4.3 -23.6°
